Location: Devore Heights
(34.2372°N, 117.4156°W)
Time: 00:14:49
(UTC+00:00)

Transit 4A - Pass Details

Date: 19 September 2024
Orbit: 864 x 978 km, 66.8° (Epoch: 13 October)

Event Time Altitude Azimuth Distance (km) Brightness Sun altitude
Rises 10:25:56 0° 237° (WSW) 3,443 - -38.0°
Reaches altitude 10° 10:28:46 10° 249° (WSW) 2,518 - -37.5°
Maximum altitude 10:33:38 27° 306° (NW) 1,635 - -36.6°
Exits shadow 10:36:56 17° 351° (N) 2,110 9.9 -36.1°
Drops below altitude 10° 10:38:37 10° 3° (N) 2,579 10.5 -35.8°
Sets 10:41:34 0° 16° (NNE) 3,543 11.5 -35.2°
